FLOCK 4E'-4

Last updated on Sat Nov 28 2020 00:02:02 GMT+0000 (Coordinated Universal Time)

1 46821U 20077J 20332.48127083 .00001682 00000-0 87091-4 0 9996 2 46821 97.4973 32.6396 0014961 185.6797 292.0109 15.17516553 4449
UTC large
Height (km)
Speed (km/s)
/
Latitude / Longitude
Inclination (degrees)
Orbital Period (minutes)
Azimuth
Elevation
Range (km)
Doppler Factor

Next 0 passes for location: London (51.5072 / 0.1276)

Sorry there are no passes over London.